Change the Weather History Date:

Sunday, June 16, 2013

  Actual Average Record
Temperature  
Mean Temperature 73 °F 68 °F  
Max Temperature 92 °F 81 °F 104 °F (1974)
Min Temperature 54 °F 54 °F 31 °F (1895)
Degree Days  
Heating Degree Days 0 2  
Month to date heating degree days 10 46  
Since 1 June heating degree days 10 46  
Since 1 July heating degree days 5324 5496  
Cooling Degree Days 8 4  
Month to date cooling degree days 82 53  
Year to date cooling degree days 129 97  
Since 1 June cooling degree days 82 53  
Growing Degree Days 23 (Base 50)    
Moisture  
Dew Point 29 °F    
Average Humidity 25    
Maximum Humidity 43    
Minimum Humidity 6    
Precipitation  
Precipitation 0.00 in 0.02 in 0.34 in (1965)
Month to date precipitation T 0.45  
Year to date precipitation 3.92 6.69  
Snow  
Snow 0.00 in 0.00 in 0.00 in (2008)
Month to date snowfall 0.0 0.0  
Since 1 July snowfall 16.0 19.2  
Snow Depth 0.00 in    
Sea Level Pressure  
Sea Level Pressure 29.86 in    
Wind  
Wind Speed 4 mph (NW)    
Max Wind Speed 10 mph    
Max Gust Speed 14 mph    
Visibility 10 miles    
Events      
T = Trace of Precipitation, MM = Missing Value Source: NWS Daily Summary

Daily Weather History Graph

Daily Weather History Graph

Search for Another Location

Airport or City:

Trip Planner

Search our weather history database for the weather conditions in past years. The results will help you decide how hot, cold, wet, or windy it might be!

Date:

Astronomy

Jun. 16, 2013 Rise Set
Actual Time 6:03 AM MDT 9:28 PM MDT
Civil Twilight 5:27 AM MDT 10:04 PM MDT
Nautical Twilight 4:40 AM MDT 10:51 PM MDT
Astronomical Twilight 3:41 AM MDT 11:50 PM MDT
Moon 1:57 PM MDT (6/16) 1:22 AM MDT (6/16)
Length of Visible Light 16h 37m
Length of Day
15h 25m
Waxing Crescent, 50% of the Moon is Illuminated
Jun 16
Waxing Crescent
Jun 23
Full
Jun 29
Last Quarter
Jul 8
New
Jul 15
First Quarter

Hourly Weather History & Observations

Time (MDT) Temp. Dew Point Humidity Pressure Visibility Wind Dir Wind Speed Gust Speed Precip Events Conditions
12:53 AM 63.0 °F 30.0 °F 29% 29.86 in 10.0 mi South 4.6 mph - N/A   Clear
1:53 AM 60.1 °F 32.0 °F 35% 29.86 in 10.0 mi South 3.5 mph - N/A   Clear
2:53 AM 59.0 °F 32.0 °F 36% 29.86 in 10.0 mi ESE 4.6 mph - N/A   Clear
3:53 AM 60.1 °F 33.1 °F 36% 29.86 in 10.0 mi SE 6.9 mph - N/A   Clear
4:53 AM 55.0 °F 33.1 °F 43% 29.86 in 10.0 mi Calm Calm - N/A   Clear
5:53 AM 57.0 °F 33.1 °F 40% 29.86 in 10.0 mi SSE 5.8 mph - N/A   Clear
6:53 AM 59.0 °F 32.0 °F 36% 29.88 in 10.0 mi SSE 5.8 mph - N/A   Clear
7:53 AM 63.0 °F 33.1 °F 33% 29.89 in 10.0 mi Calm Calm - N/A   Clear
8:53 AM 66.9 °F 33.1 °F 28% 29.91 in 10.0 mi Calm Calm - N/A   Clear
9:53 AM 70.0 °F 33.1 °F 26% 29.92 in 10.0 mi North 3.5 mph - N/A   Clear
10:53 AM 71.1 °F 36.0 °F 28% 29.92 in 10.0 mi NW 5.8 mph - N/A   Clear
11:53 AM 73.0 °F 34.0 °F 24% 29.92 in 10.0 mi NW 4.6 mph - N/A   Clear
12:53 PM 80.1 °F 32.0 °F 17% 29.90 in 10.0 mi North 3.5 mph - N/A   Clear
1:53 PM 82.9 °F 30.0 °F 15% 29.89 in 10.0 mi Calm Calm - N/A   Clear
2:53 PM 86.0 °F 25.0 °F 11% 29.86 in 10.0 mi Variable 5.8 mph - N/A   Clear
3:53 PM 88.0 °F 18.0 °F 8% 29.84 in 10.0 mi Variable 5.8 mph - N/A   Clear
4:53 PM 90.0 °F 17.1 °F 7% 29.83 in 10.0 mi Variable 4.6 mph - N/A   Clear
5:53 PM 91.0 °F 15.1 °F 6% 29.81 in 10.0 mi NNW 6.9 mph - N/A   Clear
6:53 PM 91.0 °F 18.0 °F 7% 29.80 in 10.0 mi NNW 6.9 mph - N/A   Clear
7:53 PM 90.0 °F 19.0 °F 7% 29.80 in 10.0 mi WNW 4.6 mph - N/A   Clear
8:53 PM 86.0 °F 27.0 °F 12% 29.82 in 10.0 mi West 5.8 mph - N/A   Clear
9:53 PM 80.1 °F 30.9 °F 17% 29.83 in 10.0 mi West 3.5 mph - N/A   Clear
10:53 PM 78.1 °F 30.9 °F 18% 29.84 in 10.0 mi NNE 3.5 mph - N/A   Clear
11:53 PM 71.1 °F 32.0 °F 24% 29.85 in 10.0 mi Calm Calm - N/A   Clear